• Em Portugal
  • Lista de países
  • Para 7 dias
  • Temperatura da água
  • Mapas de satélite
  • Mapa do tempo
  • Widgets de tempo
  • user-avatar
    Iniciar Sessão

    Previsão horária em Slobozia

    Hoje, 19 Junho, Terça-feira

    Tempo Temperatura Precipitação Vento Pressão Humidade
    00:00 +21°C° 0 mm 3 m/s 759 mmHg 51%
    01:00 +21°C° 0 mm 3 m/s 759 mmHg 52%
    02:00 +20°C° 0 mm 3 m/s 759 mmHg 54%
    03:00 +19°C° 0 mm 3 m/s 759 mmHg 57%
    04:00 +19°C° 0 mm 3 m/s 759 mmHg 59%
    05:00 +19°C° 0 mm 3 m/s 759 mmHg 62%
    06:00 +21°C° 0 mm 3 m/s 760 mmHg 58%
    07:00 +23°C° 0 mm 4 m/s 760 mmHg 55%
    08:00 +27°C° 0 mm 4 m/s 760 mmHg 51%
    09:00 +28°C° 0 mm 4 m/s 760 mmHg 45%
    10:00 +30°C° 0 mm 4 m/s 760 mmHg 40%
    11:00 +32°C° 0 mm 4 m/s 761 mmHg 35%
    12:00 +33°C° 0 mm 4 m/s 760 mmHg 34%
    13:00 +33°C° 0 mm 3 m/s 760 mmHg 33%
    14:00 +34°C° 0 mm 3 m/s 760 mmHg 31%
    15:00 +33°C° 0 mm 3 m/s 760 mmHg 33%
    16:00 +33°C° 0 mm 3 m/s 760 mmHg 35%
    17:00 +33°C° 0 mm 3 m/s 760 mmHg 36%
    18:00 +30°C° 0 mm 3 m/s 760 mmHg 42%
    19:00 +29°C° 0 mm 3 m/s 760 mmHg 48%
    20:00 +27°C° 0 mm 3 m/s 760 mmHg 54%
    21:00 +26°C° 0 mm 3 m/s 761 mmHg 57%
    22:00 +25°C° 0 mm 3 m/s 761 mmHg 61%
    23:00 +25°C° 0 mm 3 m/s 761 mmHg 64%

    Amanhã, 20 Junho, Quarta-feira

    Tempo Temperatura Precipitação Vento Pressão Humidade
    00:00 +24°C° 0 mm 3 m/s 761 mmHg 66%
    01:00 +24°C° 0 mm 2 m/s 761 mmHg 68%
    02:00 +23°C° 0 mm 2 m/s 762 mmHg 70%
    03:00 +23°C° 0 mm 2 m/s 762 mmHg 71%
    04:00 +23°C° 0 mm 2 m/s 762 mmHg 73%
    05:00 +23°C° 0 mm 2 m/s 762 mmHg 74%
    06:00 +25°C° 0 mm 3 m/s 762 mmHg 69%
    07:00 +27°C° 0 mm 3 m/s 762 mmHg 63%
    08:00 +28°C° 0 mm 3 m/s 762 mmHg 58%
    09:00 +30°C° 0 mm 3 m/s 763 mmHg 53%
    10:00 +31°C° 0 mm 3 m/s 763 mmHg 49%
    11:00 +33°C° 0 mm 3 m/s 763 mmHg 45%
    12:00 +33°C° 0 mm 3 m/s 762 mmHg 45%
    13:00 +34°C° 0 mm 3 m/s 762 mmHg 44%
    14:00 +34°C° 0 mm 4 m/s 762 mmHg 43%
    15:00 +34°C° 0 mm 4 m/s 762 mmHg 44%
    16:00 +34°C° 0 mm 4 m/s 762 mmHg 46%
    17:00 +33°C° 0 mm 4 m/s 761 mmHg 47%
    18:00 +32°C° 0 mm 4 m/s 762 mmHg 53%
    19:00 +29°C° 0 mm 3 m/s 762 mmHg 60%
    20:00 +28°C° 0 mm 3 m/s 762 mmHg 66%
    21:00 +27°C° 0,2 mm 3 m/s 762 mmHg 70%
    22:00 +26°C° 0,2 mm 3 m/s 762 mmHg 74%
    23:00 +25°C° 0,2 mm 3 m/s 763 mmHg 78%

    Depois de amanhã, 21 Junho, Quinta-feira

    Tempo Temperatura Precipitação Vento Pressão Humidade
    00:00 +24°C° 0,1 mm 3 m/s 763 mmHg 79%
    01:00 +24°C° 0,1 mm 3 m/s 762 mmHg 80%
    02:00 +22°C° 0,1 mm 3 m/s 762 mmHg 81%
    03:00 +22°C° 0 mm 3 m/s 762 mmHg 82%
    04:00 +22°C° 0 mm 3 m/s 762 mmHg 82%
    05:00 +22°C° 0 mm 3 m/s 762 mmHg 83%
    06:00 +24°C° 0 mm 3 m/s 762 mmHg 76%
    07:00 +26°C° 0 mm 3 m/s 762 mmHg 69%
    08:00 +28°C° 0 mm 4 m/s 762 mmHg 62%
    09:00 +29°C° 0 mm 3 m/s 762 mmHg 57%
    10:00 +30°C° 0 mm 3 m/s 762 mmHg 52%
    11:00 +31°C° 0 mm 3 m/s 761 mmHg 47%
    12:00 +31°C° 0 mm 3 m/s 761 mmHg 45%
    13:00 +31°C° 0 mm 3 m/s 760 mmHg 44%
    14:00 +33°C° 0 mm 3 m/s 760 mmHg 43%
    15:00 +31°C° 0 mm 2 m/s 759 mmHg 42%
    16:00 +31°C° 0 mm 2 m/s 759 mmHg 42%
    17:00 +31°C° 0 mm 2 m/s 759 mmHg 41%
    18:00 +30°C° 0 mm 2 m/s 759 mmHg 45%
    19:00 +29°C° 0 mm 2 m/s 758 mmHg 48%
    20:00 +27°C° 0 mm 2 m/s 758 mmHg 52%
    21:00 +27°C° 0 mm 2 m/s 758 mmHg 54%
    22:00 +26°C° 0 mm 1 m/s 758 mmHg 56%
    23:00 +25°C° 0 mm 1 m/s 758 mmHg 58%

    22 Junho, Sexta-feira

    Tempo Temperatura Precipitação Vento Pressão Humidade
    00:00 +24°C° 0 mm 1 m/s 758 mmHg 59%
    01:00 +24°C° 0 mm 1 m/s 757 mmHg 61%
    02:00 +23°C° 0 mm 1 m/s 757 mmHg 62%
    03:00 +22°C° 0 mm 0 m/s 757 mmHg 64%
    04:00 +22°C° 0 mm 0 m/s 756 mmHg 65%
    05:00 +22°C° 0 mm 0 m/s 756 mmHg 67%
    06:00 +25°C° 0 mm 1 m/s 756 mmHg 62%
    07:00 +27°C° 0 mm 1 m/s 756 mmHg 58%
    08:00 +29°C° 0 mm 1 m/s 756 mmHg 54%
    09:00 +30°C° 0 mm 2 m/s 755 mmHg 50%
    10:00 +31°C° 0 mm 3 m/s 755 mmHg 46%
    11:00 +33°C° 0 mm 3 m/s 755 mmHg 43%
    12:00 +34°C° 0 mm 3 m/s 754 mmHg 41%
    13:00 +34°C° 0 mm 3 m/s 754 mmHg 40%
    14:00 +35°C° 0 mm 4 m/s 754 mmHg 39%
    15:00 +34°C° 0 mm 3 m/s 754 mmHg 41%
    16:00 +33°C° 0 mm 3 m/s 753 mmHg 44%
    17:00 +33°C° 0 mm 3 m/s 753 mmHg 46%
    18:00 +30°C° 0,2 mm 3 m/s 753 mmHg 52%
    19:00 +29°C° 0,2 mm 3 m/s 754 mmHg 58%
    20:00 +27°C° 0,2 mm 4 m/s 754 mmHg 64%
    21:00 +26°C° 1,4 mm 4 m/s 754 mmHg 72%
    22:00 +23°C° 1,4 mm 5 m/s 755 mmHg 79%
    23:00 +21°C° 1,4 mm 5 m/s 755 mmHg 87%

    23 Junho, Sábado

    Tempo Temperatura Precipitação Vento Pressão Humidade
    00:00 +20°C° 0,7 mm 6 m/s 755 mmHg 87%
    01:00 +18°C° 0,7 mm 7 m/s 755 mmHg 87%
    02:00 +17°C° 0,7 mm 8 m/s 755 mmHg 87%
    03:00 +16°C° 0,1 mm 8 m/s 756 mmHg 85%
    04:00 +15°C° 0,1 mm 8 m/s 756 mmHg 83%
    05:00 +15°C° 0,1 mm 9 m/s 757 mmHg 81%
    06:00 +15°C° 0 mm 9 m/s 757 mmHg 77%
    07:00 +16°C° 0 mm 9 m/s 758 mmHg 72%
    08:00 +16°C° 0 mm 9 m/s 758 mmHg 68%
    09:00 +17°C° 0 mm 9 m/s 758 mmHg 63%
    10:00 +18°C° 0 mm 8 m/s 759 mmHg 59%
    11:00 +20°C° 0 mm 8 m/s 759 mmHg 54%
    12:00 +21°C° 0 mm 8 m/s 759 mmHg 51%
    13:00 +22°C° 0 mm 7 m/s 759 mmHg 48%
    14:00 +23°C° 0 mm 7 m/s 759 mmHg 44%
    15:00 +23°C° 0 mm 7 m/s 759 mmHg 44%
    16:00 +23°C° 0 mm 6 m/s 759 mmHg 45%
    17:00 +23°C° 0 mm 6 m/s 760 mmHg 45%
    18:00 +22°C° 0 mm 5 m/s 760 mmHg 50%
    19:00 +20°C° 0 mm 4 m/s 760 mmHg 56%
    20:00 +19°C° 0 mm 3 m/s 760 mmHg 61%
    21:00 +18°C° 0 mm 3 m/s 761 mmHg 63%
    22:00 +18°C° 0 mm 2 m/s 761 mmHg 65%
    23:00 +17°C° 0 mm 2 m/s 761 mmHg 67%

    24 Junho, Domingo

    Tempo Temperatura Precipitação Vento Pressão Humidade
    00:00 +17°C° 0 mm 2 m/s 762 mmHg 69%
    01:00 +16°C° 0 mm 2 m/s 762 mmHg 71%
    02:00 +16°C° 0 mm 2 m/s 762 mmHg 73%
    03:00 +16°C° 0 mm 2 m/s 762 mmHg 74%
    04:00 +15°C° 0 mm 2 m/s 763 mmHg 76%
    05:00 +15°C° 0 mm 2 m/s 763 mmHg 77%
    06:00 +17°C° 0 mm 2 m/s 763 mmHg 70%
    07:00 +19°C° 0 mm 3 m/s 763 mmHg 63%
    08:00 +21°C° 0 mm 3 m/s 763 mmHg 56%
    09:00 +22°C° 0 mm 3 m/s 763 mmHg 50%
    10:00 +24°C° 0 mm 3 m/s 763 mmHg 45%
    11:00 +25°C° 0 mm 3 m/s 763 mmHg 39%
    12:00 +26°C° 0 mm 3 m/s 763 mmHg 38%
    13:00 +26°C° 0 mm 3 m/s 763 mmHg 36%
    14:00 +27°C° 0 mm 3 m/s 762 mmHg 35%
    15:00 +27°C° 0 mm 3 m/s 762 mmHg 35%
    16:00 +27°C° 0 mm 3 m/s 762 mmHg 36%
    17:00 +27°C° 0 mm 3 m/s 762 mmHg 37%
    18:00 +25°C° 0 mm 3 m/s 762 mmHg 42%
    19:00 +23°C° 0 mm 2 m/s 762 mmHg 48%
    20:00 +21°C° 0 mm 2 m/s 762 mmHg 53%
    21:00 +20°C° 0 mm 2 m/s 763 mmHg 55%
    22:00 +19°C° 0 mm 2 m/s 763 mmHg 57%
    23:00 +19°C° 0 mm 2 m/s 763 mmHg 59%
    Mostrar mais